| time (UTC) | temp F | wind direction | speed knots | gust knots | rain 1hr in | rain 24hr in | rain mn in | humidity % | barometer mb |
| 20260901173053 | 61 | 124 | 0.0 | 5.2 | 0.16 | 0.75 | 0.75 | 91 | 1016.3 |
| 20260901171559 | 62 | 94 | 0.0 | 3.5 | 0.10 | 0.69 | 0.69 | 91 | 1016.7 |
| 20260901164540 | 63 | 77 | 0.0 | 7.0 | 0.02 | 0.60 | 0.60 | 91 | 1016.4 |
| 20260901163038 | 64 | 80 | 0.0 | 6.1 | 0.02 | 0.59 | 0.59 | 91 | 1016.4 |
| 20260901161539 | 64 | 95 | 0.0 | 5.2 | 0.04 | 0.59 | 0.59 | 91 | 1016.3 |
| 20260901160106 | 65 | 88 | 0.0 | 3.5 | 0.06 | 0.59 | 0.59 | 91 | 1016.5 |
| 20260901154512 | 65 | 74 | 0.0 | 5.2 | 0.07 | 0.57 | 0.57 | 91 | 1016.5 |
| 20260901153103 | 65 | 37 | 0.0 | 7.8 | 0.08 | 0.56 | 0.56 | 91 | 1016.6 |
| 20260901151535 | 65 | 101 | 0.0 | 3.5 | 0.11 | 0.55 | 0.55 | 91 | 1016.8 |
| 20260901150030 | 66 | 117 | 0.0 | 0.0 | 0.11 | 0.52 | 0.52 | 91 | 1016.8 |
| 20260901144529 | 66 | 119 | 0.0 | 2.6 | 0.15 | 0.51 | 0.51 | 91 | 1016.9 |
| 20260901143029 | 65 | 123 | 0.0 | 2.6 | 0.20 | 0.49 | 0.49 | 92 | 1016.9 |
| 20260901141537 | 65 | 128 | 0.0 | 0.0 | 0.25 | 0.44 | 0.44 | 91 | 1017.0 |
| 20260901140100 | 65 | 132 | 0.0 | 0.0 | 0.27 | 0.41 | 0.41 | 91 | 1017.0 |
| 20260901134613 | 65 | 132 | 0.0 | 0.0 | 0.24 | 0.36 | 0.36 | 91 | 1017.2 |
| 20260901133054 | 65 | 132 | 0.0 | 0.0 | 0.18 | 0.28 | 0.28 | 91 | 1017.1 |
| 20260901131559 | 65 | 132 | 0.0 | 1.7 | 0.11 | 0.19 | 0.19 | 91 | 1017.7 |
| 20260901130052 | 65 | 132 | 0.0 | 0.0 | 0.11 | 0.14 | 0.14 | 91 | 1016.9 |
| 20260901124550 | 65 | 132 | 0.0 | 0.0 | 0.10 | 0.11 | 0.11 | 91 | 1016.9 |
| 20260901123049 | 65 | 132 | 0.0 | 0.0 | 0.10 | 0.11 | 0.11 | 91 | 1016.8 |
| 20260901121548 | 65 | 132 | 0.0 | 0.9 | 0.07 | 0.08 | 0.08 | 91 | 1017.0 |
| 20260901120047 | 65 | 132 | 0.0 | 0.0 | 0.02 | 0.03 | 0.03 | 91 | 1017.1 |
| 20260901114546 | 65 | 132 | 0.0 | 0.0 | 0.01 | 0.01 | 0.01 | 90 | 1017.1 |
| 20260901113045 | 65 | 132 | 0.0 | 0.0 | 0.01 | 0.01 | 0.01 | 91 | 1017.0 |
| 20260901111542 | 65 | 132 | 0.0 | 0.0 | 0.01 | 0.02 | 0.01 | 90 | 1016.9 |
| 20260901110041 | 65 | 132 | 0.0 | 0.0 | 0.01 | 0.02 | 0.01 | 90 | 1016.7 |
| 20260901104540 | 65 | 132 | 0.0 | 0.0 | 0.00 | 0.01 | 0.00 | 90 | 1016.7 |
| 20260901103047 | 65 | 132 | 0.0 | 0.0 | 0.00 | 0.01 | 0.00 | 90 | 1016.7 |
| 20260901101537 | 65 | 132 | 0.0 | 0.0 | 0.00 | 0.01 | 0.00 | 90 | 1016.5 |
| 20260901100036 | 65 | 132 | 0.0 | 0.0 | 0.00 | 0.01 | 0.00 | 90 | 1016.5 |
| 20260901093035 | 65 | 132 | 0.0 | 0.0 | 0.00 | 0.01 | 0.00 | 89 | 1016.7 |
| 20260901091532 | 65 | 132 | 0.0 | 0.0 | 0.00 | 0.01 | 0.00 | 89 | 1016.8 |
| 20260901090031 | 65 | 132 | 0.0 | 0.0 | 0.00 | 0.01 | 0.00 | 89 | 1016.7 |
| 20260901084531 | 65 | 132 | 0.0 | 0.0 | 0.00 | 0.01 | 0.00 | 89 | 1016.6 |
| 20260901083030 | 65 | 132 | 0.0 | 0.0 | 0.00 | 0.01 | 0.00 | 89 | 1016.5 |
| 20260901081556 | 65 | 132 | 0.0 | 0.0 | 0.00 | 0.01 | 0.00 | 89 | 1016.9 |
| 20260901080054 | 65 | 132 | 0.0 | 0.0 | 0.00 | 0.01 | 0.00 | 88 | 1017.2 |
| 20260901074551 | 66 | 132 | 0.0 | 0.0 | 0.00 | 0.01 | 0.00 | 88 | 1017.4 |
| 20260901073050 | 66 | 132 | 0.0 | 0.0 | 0.00 | 0.01 | 0.00 | 87 | 1017.3 |
| 20260901071558 | 66 | 132 | 0.0 | 0.0 | 0.00 | 0.01 | 0.00 | 87 | 1017.4 |
| 20260901070047 | 65 | 132 | 0.0 | 0.0 | 0.00 | 0.01 | 0.00 | 87 | 1017.4 |
| 20260901064545 | 65 | 132 | 0.0 | 0.0 | 0.00 | 0.01 | 0.00 | 87 | 1017.4 |
| 20260901063043 | 65 | 132 | 0.0 | 0.0 | 0.00 | 0.01 | 0.00 | 86 | 1017.4 |
| 20260901061541 | 66 | 132 | 0.0 | 0.0 | 0.00 | 0.01 | 0.00 | 86 | 1017.6 |
| 20260901060041 | 65 | 132 | 0.0 | 0.0 | 0.00 | 0.01 | 0.00 | 86 | 1017.9 |
| 20260901054538 | 65 | 132 | 0.0 | 0.0 | 0.00 | 0.01 | 0.00 | 86 | 1017.7 |
| 20260901053043 | 65 | 132 | 0.0 | 0.0 | 0.00 | 0.01 | 0.00 | 85 | 1017.7 |
| 20260901051535 | 65 | 132 | 0.0 | 0.0 | 0.00 | 0.01 | 0.00 | 85 | 1017.9 |
| 20260901050035 | 65 | 132 | 0.0 | 0.0 | 0.00 | 0.01 | 0.00 | 85 | 1018.0 |
| 20260901044506 | 65 | 132 | 0.0 | 0.0 | 0.00 | 0.01 | 0.00 | 85 | 1018.1 |
| 20260901043031 | 65 | 132 | 0.0 | 0.0 | 0.00 | 0.01 | 0.00 | 84 | 1018.2 |
| 20260901041530 | 65 | 132 | 0.0 | 0.0 | 0.00 | 0.01 | 0.00 | 84 | 1018.1 |
| 20260901040029 | 65 | 132 | 0.0 | 0.0 | 0.00 | 0.01 | 0.00 | 84 | 1018.2 |
| 20260901034532 | 65 | 132 | 0.0 | 0.0 | 0.00 | 0.01 | 0.00 | 84 | 1018.2 |
| 20260901031525 | 65 | 132 | 0.0 | 0.0 | 0.00 | 0.01 | 0.00 | 83 | 1018.4 |
| 20260901030027 | 65 | 132 | 0.0 | 0.0 | 0.00 | 0.01 | 0.00 | 82 | 1018.3 |
| 20260901024505 | 66 | 132 | 0.0 | 0.0 | 0.00 | 0.01 | 0.00 | 81 | 1018.2 |
| 20260901023043 | 66 | 132 | 0.0 | 0.0 | 0.00 | 0.01 | 0.00 | 80 | 1018.2 |
| 20260901021538 | 66 | 132 | 0.0 | 0.0 | 0.00 | 0.10 | 0.00 | 79 | 1018.2 |
| 20260901020036 | 67 | 132 | 0.0 | 0.0 | 0.00 | 0.10 | 0.00 | 78 | 1018.2 |
| 20260901014535 | 67 | 132 | 0.0 | 0.0 | 0.00 | 0.10 | 0.00 | 78 | 1018.3 |
| 20260901013033 | 67 | 132 | 0.0 | 0.0 | 0.00 | 0.10 | 0.00 | 77 | 1018.5 |
| 20260901011528 | 68 | 132 | 0.0 | 0.0 | 0.00 | 0.10 | 0.00 | 77 | 1018.4 |
| 20260901010027 | 68 | 132 | 0.0 | 0.0 | 0.00 | 0.10 | 0.00 | 77 | 1018.4 |
| 20260901004525 | 68 | 132 | 0.0 | 0.0 | 0.00 | 0.10 | 0.00 | 78 | 1018.4 |
| 20260901003024 | 69 | 133 | 0.0 | 0.0 | 0.00 | 0.10 | 0.00 | 78 | 1018.3 |
| 20260901001553 | 69 | 133 | 0.0 | 0.0 | 0.00 | 0.10 | 0.00 | 79 | 1018.2 |
| 20260901000057 | 70 | 176 | 0.0 | 2.6 | 0.00 | 0.10 | 0.00 | 79 | 1018.1 |
| 20260831234546 | 70 | 176 | 0.0 | 0.0 | 0.00 | 0.10 | 0.00 | 79 | 1018.2 |
| 20260831233042 | 71 | 177 | 0.0 | 0.0 | 0.00 | 0.10 | 0.00 | 78 | 1018.2 |
| 20260831231546 | 71 | 178 | 0.0 | 0.0 | 0.00 | 0.10 | 0.00 | 77 | 1018.2 |
| 20260831230041 | 72 | 195 | 0.0 | 0.0 | 0.00 | 0.10 | 0.00 | 75 | 1018.3 |
| 20260831224533 | 73 | 199 | 0.0 | 0.0 | 0.00 | 0.10 | 0.00 | 69 | 1018.2 |
| 20260831223032 | 73 | 199 | 0.0 | 0.0 | 0.00 | 0.10 | 0.00 | 67 | 1018.2 |
| 20260831221532 | 73 | 199 | 0.0 | 0.0 | 0.00 | 0.10 | 0.10 | 65 | 1018.4 |
| 20260831220029 | 74 | 199 | 0.0 | 0.0 | 0.00 | 0.10 | 0.10 | 66 | 1018.2 |
| 20260831214528 | 74 | 199 | 0.0 | 0.0 | 0.00 | 0.10 | 0.10 | 68 | 1018.4 |
| 20260831213029 | 74 | 199 | 0.0 | 3.5 | 0.00 | 0.10 | 0.10 | 65 | 1018.3 |
| 20260831211531 | 74 | 201 | 0.0 | 5.2 | 0.00 | 0.10 | 0.10 | 62 | 1018.4 |
| 20260831210024 | 74 | 203 | 0.0 | 4.3 | 0.00 | 0.10 | 0.10 | 61 | 1018.3 |
| 20260831204526 | 75 | 201 | 0.0 | 7.0 | 0.00 | 0.10 | 0.10 | 62 | 1018.5 |
| 20260831203053 | 76 | 179 | 0.0 | 6.1 | 0.00 | 0.10 | 0.10 | 60 | 1018.5 |
| 20260831201552 | 76 | 209 | 1.7 | 7.0 | 0.00 | 0.10 | 0.10 | 62 | 1018.3 |
| 20260831200052 | 75 | 253 | 0.0 | 3.5 | 0.00 | 0.10 | 0.10 | 61 | 1018.3 |
| 20260831194612 | 76 | 280 | 0.0 | 0.9 | 0.00 | 0.10 | 0.10 | 61 | 1018.4 |
| 20260831193046 | 76 | 282 | 0.0 | 0.9 | 0.00 | 0.10 | 0.10 | 60 | 1018.7 |
| 20260831191544 | 75 | 282 | 0.0 | 0.0 | 0.00 | 0.10 | 0.10 | 61 | 1018.8 |
| 20260831190046 | 75 | 282 | 0.0 | 0.0 | 0.00 | 0.10 | 0.10 | 60 | 1019.0 |
| 20260831184541 | 75 | 282 | 0.0 | 0.0 | 0.00 | 0.10 | 0.10 | 60 | 1019.0 |
| 20260831183041 | 74 | 282 | 0.0 | 0.9 | 0.00 | 0.10 | 0.10 | 60 | 1019.1 |
| 20260831181541 | 75 | 282 | 0.0 | 0.0 | 0.00 | 0.10 | 0.10 | 61 | 1019.3 |
| 20260831180011 | 74 | 282 | 0.0 | 0.9 | 0.00 | 0.10 | 0.10 | 59 | 1019.4 |
| 20260831174509 | 75 | 274 | 0.0 | 0.0 | 0.00 | 0.10 | 0.10 | 58 | 1019.3 |